Pecos, TX

4:34 AM CDT on April 22, 2018 (GMT -0500)
Pecos Municipal

Weather History for KPEQ - September, 2011

Change the Weather History Date:

Friday, September 23, 2011

  Actual Average Record
Temperature  
Mean Temperature 72 °F -  
Max Temperature 89 °F 85 °F 102 °F (1951)
Min Temperature 55 °F 57 °F 42 °F (1975)
Cooling Degree Days 7    
Growing Degree Days 22 (Base 50)    
Moisture  
Dew Point 48 °F    
Average Humidity 51    
Maximum Humidity 76    
Minimum Humidity 17    
Precipitation  
Precipitation 0.00 in - - ()
Sea Level Pressure  
Sea Level Pressure 30.19 in    
Wind  
Wind Speed 2 mph (NNW)    
Max Wind Speed 8 mph    
Max Gust Speed -    
Visibility 10 miles    
Events      
Averages and records for this station are not official NWS values.
T = Trace of Precipitation, MM = Missing Value Source: NWS Daily Summary

Daily Weather History Graph

Daily Weather History Graph

Search for Another Location

Airport or City:

Astronomy

Sep. 23, 2011 Rise Set
Actual Time 7:42 AM CDT 7:49 PM CDT
Civil Twilight 7:18 AM CDT 8:13 PM CDT
Nautical Twilight 6:50 AM CDT 8:42 PM CDT
Astronomical Twilight 6:21 AM CDT 9:10 PM CDT
Moon 3:27 AM CDT (9/23) 5:09 PM CDT (9/23)
Length of Visible Light 12h 55m
Length of Day
12h 06m
Waning Crescent, 19% of the Moon is Illuminated
Sep 23
Waning Crescent
Sep 27
New
Oct 3
First Quarter
Oct 11
Full
Oct 19
Last Quarter

Hourly Weather History & Observations

Time (CDT) Temp. Dew Point Humidity Pressure Visibility Wind Dir Wind Speed Gust Speed Precip Events Conditions
12:15 AM 66.2 °F 48.9 °F 54% 30.22 in 10.0 mi Calm Calm - N/A   Clear
12:35 AM 65.8 °F 49.1 °F 55% 30.22 in 10.0 mi Calm Calm - N/A   Clear
12:55 AM 65.8 °F 49.3 °F 55% 30.22 in 10.0 mi Calm Calm - N/A   Clear
1:15 AM 64.8 °F 49.6 °F 58% 30.22 in 10.0 mi Calm Calm - N/A   Clear
1:35 AM 62.6 °F 50.0 °F 63% 30.22 in 10.0 mi West 3.5 mph - N/A   Clear
1:55 AM 61.9 °F 50.2 °F 65% 30.22 in 10.0 mi WSW 4.6 mph - N/A   Clear
2:15 AM 61.5 °F 50.0 °F 66% 30.22 in 10.0 mi WSW 3.5 mph - N/A   Clear
2:35 AM 61.2 °F 50.0 °F 67% 30.22 in 10.0 mi West 4.6 mph - N/A   Clear
2:55 AM 61.0 °F 50.0 °F 67% 30.22 in 10.0 mi WNW 3.5 mph - N/A   Clear
3:15 AM 60.8 °F 50.4 °F 68% 30.21 in 10.0 mi NW 5.8 mph - N/A   Clear
3:35 AM 60.8 °F 50.2 °F 68% 30.22 in 10.0 mi NW 3.5 mph - N/A   Clear
3:55 AM 60.1 °F 50.0 °F 69% 30.21 in 10.0 mi NW 3.5 mph - N/A   Clear
4:15 AM 59.9 °F 50.0 °F 70% 30.21 in 10.0 mi NNW 4.6 mph - N/A   Clear
4:35 AM 60.1 °F 49.8 °F 69% 30.21 in 10.0 mi Calm Calm - N/A   Clear
4:55 AM 59.7 °F 49.6 °F 69% 30.21 in 10.0 mi Calm Calm - N/A   Clear
5:15 AM 58.8 °F 49.5 °F 71% 30.20 in 10.0 mi NW 3.5 mph - N/A   Clear
5:35 AM 58.3 °F 49.5 °F 72% 30.21 in 10.0 mi NNW 3.5 mph - N/A   Clear
6:15 AM 59.5 °F 49.5 °F 69% 30.21 in 10.0 mi NNW 3.5 mph - N/A   Clear
6:35 AM 59.0 °F 49.3 °F 70% 30.22 in 10.0 mi Calm Calm - N/A   Clear
6:55 AM 57.6 °F 49.1 °F 73% 30.23 in 10.0 mi Calm Calm - N/A   Clear
7:15 AM 57.0 °F 48.7 °F 74% 30.23 in 10.0 mi NNW 3.5 mph - N/A   Clear
7:35 AM 56.1 °F 48.2 °F 75% 30.23 in 10.0 mi Calm Calm - N/A   Clear
8:15 AM 55.9 °F 48.6 °F 76% 30.24 in 10.0 mi Calm Calm - N/A   Clear
8:35 AM 57.2 °F 49.5 °F 75% 30.24 in 10.0 mi Calm Calm - N/A   Clear
8:55 AM 59.0 °F 50.2 °F 73% 30.25 in 10.0 mi Calm Calm - N/A   Clear
9:35 AM 63.0 °F 51.1 °F 65% 30.24 in 10.0 mi Calm Calm - N/A   Clear
9:55 AM 64.6 °F 51.3 °F 62% 30.25 in 10.0 mi Calm Calm - N/A   Clear
10:15 AM 66.2 °F 51.4 °F 59% 30.25 in 10.0 mi Calm Calm - N/A   Clear
10:35 AM 67.6 °F 51.6 °F 56% 30.24 in 10.0 mi Calm Calm - N/A   Clear
10:55 AM 68.9 °F 51.8 °F 54% 30.24 in 10.0 mi Calm Calm - N/A   Clear
11:15 AM 70.9 °F 52.2 °F 51% 30.24 in 10.0 mi Calm Calm - N/A   Clear
11:35 AM 73.4 °F 52.0 °F 47% 30.24 in 10.0 mi Calm Calm - N/A   Clear
11:55 AM 74.3 °F 52.0 °F 46% 30.23 in 10.0 mi Calm Calm - N/A   Clear
12:15 PM 76.1 °F 52.0 °F 43% 30.22 in 10.0 mi Calm Calm - N/A   Clear
12:35 PM 77.4 °F 51.6 °F 41% 30.21 in 10.0 mi Calm Calm - N/A   Clear
12:55 PM 78.6 °F 51.1 °F 38% 30.20 in 10.0 mi Calm Calm - N/A   Clear
1:15 PM 80.1 °F 50.5 °F 36% 30.19 in 10.0 mi Calm Calm - N/A   Clear
1:35 PM 81.1 °F 50.2 °F 34% 30.18 in 10.0 mi SE 4.6 mph - N/A   Clear
1:55 PM 82.4 °F 50.0 °F 32% 30.17 in 10.0 mi NW 5.8 mph - N/A   Clear
2:15 PM 83.1 °F 49.5 °F 31% 30.16 in 10.0 mi NNW 4.6 mph - N/A   Clear
2:55 PM 85.3 °F 48.0 °F 27% 30.15 in 10.0 mi North 3.5 mph - N/A   Clear
3:15 PM 86.4 °F 46.8 °F 25% 30.13 in 10.0 mi ENE 6.9 mph - N/A   Clear
3:35 PM 86.5 °F 45.9 °F 24% 30.12 in 10.0 mi NNW 6.9 mph - N/A   Clear
3:55 PM 87.4 °F 43.0 °F 21% 30.11 in 10.0 mi NE 6.9 mph - N/A   Clear
4:15 PM 88.3 °F 43.5 °F 21% 30.10 in 10.0 mi NNE 8.1 mph - N/A   Clear
4:55 PM 88.3 °F 41.4 °F 19% 30.09 in 10.0 mi NNW 3.5 mph - N/A   Clear
5:15 PM 88.9 °F 40.5 °F 18% 30.09 in 10.0 mi North 8.1 mph - N/A   Clear
5:35 PM 89.1 °F 39.2 °F 17% 30.09 in 10.0 mi Calm Calm - N/A   Clear
6:15 PM 89.1 °F 40.8 °F 18% 30.08 in 10.0 mi East 6.9 mph - N/A   Clear
6:35 PM 88.5 °F 41.0 °F 19% 30.08 in 10.0 mi Calm Calm - N/A   Clear
6:55 PM 88.0 °F 40.8 °F 19% 30.07 in 10.0 mi Calm Calm - N/A   Clear
7:15 PM 87.3 °F 41.0 °F 20% 30.07 in 10.0 mi Calm Calm - N/A   Clear
7:35 PM 86.2 °F 40.8 °F 20% 30.07 in 10.0 mi Calm Calm - N/A   Clear
7:55 PM 84.2 °F 41.0 °F 22% 30.07 in 10.0 mi SSE 4.6 mph - N/A   Clear
8:15 PM 81.1 °F 40.8 °F 24% 30.07 in 10.0 mi SE 4.6 mph - N/A   Clear
8:35 PM 79.2 °F 40.5 °F 25% 30.07 in 10.0 mi SSE 4.6 mph - N/A   Clear
8:55 PM 76.8 °F 40.1 °F 27% 30.08 in 10.0 mi SE 5.8 mph - N/A   Clear
9:15 PM 74.8 °F 39.6 °F 28% 30.09 in 10.0 mi SE 8.1 mph - N/A   Clear
9:35 PM 73.0 °F 38.5 °F 29% 30.09 in 10.0 mi SE 8.1 mph - N/A   Clear
10:15 PM 71.2 °F 39.4 °F 31% 30.09 in 10.0 mi SSE 6.9 mph - N/A   Clear
10:35 PM 70.2 °F 39.6 °F 33% 30.10 in 10.0 mi SSW 5.8 mph - N/A   Clear
11:15 PM 67.1 °F 40.6 °F 38% 30.11 in 10.0 mi Calm Calm - N/A   Clear
11:35 PM 66.4 °F 41.2 °F 40% 30.11 in 10.0 mi SW 3.5 mph - N/A   Clear
11:55 PM 66.2 °F 40.8 °F 40% 30.11 in 10.0 mi SSW 3.5 mph - N/A   Clear